COSMOS 1275 DEB, 12710

Orbit data source: Space-Track

COSMOS 1275 DEB, 12710 is space debris in LEO originally from a launch on Thu, 04 Jun 1981 UTC launched from the Plesetsk Missile And Space Complex (PKMTR). Debris objects in space refer to the collection of defunct objects orbiting the Earth. Examples of debris include non-operational satellites, rocket bodies, and fragments generated from explosions, collisions, or faulty payload assembly.

Loading next visibility...
Identifier
12710, 1981-053BE
Orbit
LEO
Country
Flag of CISCIS
Related business
Manufacturer
Unknown
Mission
Spacecraft
Bus & Motor
Unknown
Mass
Unknown
Launch date (UTC)
1981-06-04 (45 years ago)
Launch vehicle
Unknown
Launch site
Plesetsk Missile And Space Complex (PKMTR)
Object type
Payload
Rocket body
Debris
Shape & HBR
Unknown shape, 0.3 m
Radar Cross Section
Medium (>0.1 m² and <1 m²)

Expand to show TLE details & history
Last TLE update: 7 hours ago

TLE from 7 hours ago
0 COSMOS 1275 DEB
1 12710U 81053BE  26263.53238365  .00000808  00000-0  80373-3 0  9992
2 12710  83.0088 192.1390 0115769  80.8216 280.6014 13.74001191242904
Epoch: 2026-09-20T12:46Z
TLE epoch observation values (Epoch: 2026-09-20T12:46:37.947Z)
Latitude
-0.00005°
Longitude
1.05567°
Altitude
973.412 km
Speed
7.372 km/s
True Right ascension
12h 48m 33s
True Declination
0° 00' 00"
Sunlit
Object was in daylight at epoch
Visualization orbit readout
Latitude
Unknown
Longitude
Unknown
Altitude
Unknown
Speed
Unknown
Apparent Right ascension
Unknown
Apparent Declination
Unknown
Sunlit
N/A
Visualization observer readout
Local Sidereal Time
12:57:42
Azimuth
Unknown
Elevation
Unknown
Doppler factor
Unknown
Orbital elements
Apogee altitude
1,067.6 km
Perigee altitude
897.176 km
Semi-major axis
7,360.525 km
Eccentricity
0.01158
Inclination
83.0088°
RAAN
192.139°
Arg. of periapsis
80.8216°
True anomaly
279.29406°
Mean anomaly
280.6014°
Eccentric anomaly
279.94807°
Mean motion
3.437 °/min
Orbital period
104.74 mins
BSTAR
0.00080373
Loading maneuver chart data...
Computing Atmospheric mass density...

Documentation

Showing up to 5 results
|